Vorticity
nan nan nan nan nan nan nan nan nan nan nan nan nan nan nan nan nan nan nan nan nan nan nan nan nan nan nan nan nan nan nan nan nan nan nan nan nan nan nan nan nan nan nan nan nan
nan 5 5 5 6 7 7 7 7 7 7 7 7 6 7 10 16 16 11 1 10 12 7 12 16 12 10 9 10 10 8 8 1 13 11 -0 14 19 0 7 7 1 5 16 nan
nan 22 6 6 5 6 6 7 7 7 7 7 7 7 9 14 14 14 5 5 14 12 6 5 12 9 6 9 9 8 15 10 -0 1 20 16 2 10 16 5 8 7 4 4 nan
nan 21 19 6 5 6 7 8 7 6 7 8 6 8 14 12 6 7 1 10 17 6 5 11 12 9 6 8 8 4 8 6 6 2 8 24 13 13 17 0 10 15 9 6 nan
nan 19 19 7 5 5 7 8 8 7 6 7 6 12 13 7 9 2 6 13 11 4 7 11 11 12 10 7 5 10 5 4 6 3 9 24 15 5 7 10 14 21 10 5 nan
nan 18 26 11 3 5 7 7 9 8 6 7 8 12 9 5 8 2 9 12 9 6 6 7 9 9 12 13 9 8 4 1 2 7 10 15 23 12 -1 3 17 22 8 6 nan
nan 7 24 21 3 6 6 7 8 8 7 8 11 12 7 8 -1 5 12 12 10 7 6 7 7 10 9 10 12 8 1 -4 2 5 2 14 25 10 1 5 20 17 7 10 nan
nan 9 20 19 5 5 6 6 8 9 8 9 14 10 7 7 5 9 9 11 7 7 7 6 8 9 11 10 10 6 7 3 -6 6 9 16 19 10 4 17 27 18 6 7 nan
nan 8 7 17 15 7 5 7 11 11 13 15 12 5 6 9 9 8 10 6 11 11 8 7 7 11 12 4 7 7 8 7 1 7 4 6 15 12 8 16 20 19 16 10 nan
nan 7 4 14 19 5 8 14 16 15 13 7 7 9 10 6 6 9 12 8 9 11 12 9 5 7 6 7 7 11 6 9 10 3 5 3 10 4 10 13 13 15 11 13 nan
nan 7 8 23 21 6 11 18 16 11 7 5 4 6 8 8 10 8 6 10 11 10 8 10 8 6 3 6 9 11 15 13 10 7 5 4 4 7 12 10 9 9 11 8 nan
nan 7 22 33 15 7 10 7 8 8 12 13 5 7 9 8 9 7 7 11 10 8 10 8 10 4 6 11 13 13 12 9 7 9 5 1 10 17 11 10 8 6 10 10 nan
nan 6 19 20 10 10 9 11 10 6 9 14 10 9 12 9 6 7 8 10 10 9 9 8 7 7 11 10 8 7 8 6 9 10 6 8 17 13 10 10 6 6 8 9 nan
nan 5 10 11 9 10 10 11 8 5 10 12 9 10 10 7 8 9 8 11 9 7 8 11 6 10 10 8 9 11 8 9 10 4 5 11 14 19 10 9 8 7 5 7 nan
nan 5 12 13 10 7 10 12 6 6 8 10 9 8 9 9 10 9 8 10 9 9 8 8 9 11 9 7 9 10 13 15 8 3 9 7 7 17 11 7 10 7 6 6 nan
nan 7 11 14 10 10 9 8 8 9 9 7 9 9 7 9 8 9 9 7 9 8 9 8 9 7 9 9 12 9 9 9 8 7 9 11 12 5 12 13 9 6 7 8 nan
nan 9 16 11 10 11 9 8 8 10 9 9 9 10 8 8 7 9 11 9 8 9 9 10 10 11 10 11 12 8 5 4 7 8 8 12 9 8 14 11 11 12 9 9 nan
nan 23 27 8 9 9 8 9 7 9 9 8 12 9 10 8 6 8 9 9 8 8 7 10 12 8 9 9 12 12 6 11 12 9 6 9 10 5 10 13 11 10 11 11 nan
nan 23 15 10 9 9 9 8 11 8 11 10 8 7 9 7 7 8 8 9 11 7 5 12 8 8 8 9 12 14 10 8 12 10 9 8 7 4 8 12 14 13 11 13 nan
nan 10 9 11 10 9 11 9 10 8 8 8 7 12 11 9 8 9 7 8 10 10 9 10 8 11 9 13 9 8 12 11 10 9 9 8 10 9 2 10 15 14 15 11 nan
nan 10 11 7 10 12 10 9 8 11 9 7 10 11 9 10 10 9 9 7 7 12 12 7 10 9 7 7 9 14 11 9 5 13 15 8 9 7 7 9 8 13 15 11 nan
nan 10 12 7 9 11 10 8 7 12 11 9 9 10 12 10 9 8 7 5 11 13 10 10 11 5 10 11 13 13 10 10 13 11 5 7 9 5 13 15 18 15 11 10 nan
nan 10 9 10 10 10 7 7 11 10 10 9 9 10 12 10 9 10 9 5 9 14 10 10 12 11 11 6 7 7 8 11 10 10 9 8 3 4 8 12 18 14 12 12 nan
nan 11 8 10 9 12 9 9 9 10 9 9 10 10 9 7 11 13 6 7 11 7 11 14 9 9 5 5 5 4 3 5 11 7 9 14 4 -2 1 9 10 10 11 10 nan
nan 10 11 10 13 12 6 10 11 10 9 11 8 11 10 9 9 9 10 7 6 9 11 12 10 9 10 11 12 10 8 8 5 5 4 5 3 1 1 6 10 11 8 6 nan
nan 9 10 13 14 8 8 10 10 9 10 12 10 11 11 9 14 15 12 10 8 10 8 11 12 9 10 10 17 17 16 14 11 11 9 6 11 8 3 7 7 9 5 1 nan
nan nan nan nan nan nan nan nan nan nan nan nan nan nan nan nan nan nan nan nan nan nan nan nan nan nan nan nan nan nan nan nan nan nan nan nan nan nan nan nan nan nan nan nan nan
CAPE
5 4 5 5 5 8 7 8 28 10 6 19 25 4 11 14 19 0 0 0 2 53 8 1 17 40 98 154 149 260 131 161 60 6 32 12 31 16 10 226 418 297 167 108 616
24 9 6 5 9 11 10 10 24 10 8 17 16 9 27 23 1 0 0 0 59 49 15 13 50 82 147 68 144 156 142 47 52 18 30 15 23 7 20 262 423 329 164 289 815
20 32 8 2 6 7 6 7 6 8 8 12 14 12 4 0 0 0 0 21 62 40 7 27 115 112 102 226 112 92 120 90 33 8 4 6 0 27 26 117 308 266 246 130 2
12 40 23 2 6 5 5 11 6 5 5 8 14 9 0 0 0 0 0 14 24 0 27 33 75 86 71 73 197 68 79 64 11 34 0 7 0 0 5 25 356 278 236 202 37
22 35 39 1 6 2 9 6 14 6 3 0 13 8 0 0 0 0 0 0 0 1 23 70 77 47 71 126 168 142 59 25 16 2 0 0 18 2 47 232 37 328 311 307 186
17 7 24 0 0 1 6 12 12 9 1 0 13 3 0 0 0 0 0 0 0 0 1 28 42 117 50 43 135 36 1 15 0 0 0 6 19 28 9 8 2 488 450 252 171
6 3 30 4 0 5 6 2 5 11 6 0 8 4 0 0 0 0 0 0 0 0 0 12 20 23 16 0 8 4 7 7 0 0 0 0 0 15 0 0 16 430 493 461 209
11 6 10 10 0 1 1 1 1 2 1 0 5 0 0 0 0 0 0 0 3 16 2 9 19 18 40 10 9 4 0 10 1 0 0 1 1 46 0 0 123 288 430 574 301
12 14 26 23 7 3 0 0 0 0 0 0 0 0 0 0 0 0 0 0 0 0 0 0 0 29 13 22 11 2 0 0 0 0 1 1 2 5 0 2 38 214 357 412 246
13 7 3 6 9 0 0 0 0 0 0 0 0 0 0 0 0 0 0 0 0 0 0 0 0 27 0 44 7 0 0 0 0 0 0 0 0 1 0 0 0 8 80 162 258
11 3 0 5 7 0 0 0 0 0 0 0 0 0 0 0 0 0 0 0 0 0 0 0 56 7 4 5 0 2 0 0 0 0 1 0 0 0 0 0 0 0 0 1 161
3 0 20 14 1 2 0 0 0 0 0 0 0 0 0 0 0 0 0 0 0 0 0 5 28 6 0 0 0 4 0 1 0 0 11 0 0 1 0 0 0 0 0 0 1
5 0 27 11 6 1 0 0 0 0 0 0 0 0 0 0 0 0 0 0 0 0 0 10 1 0 0 0 2 1 3 0 0 1 1 6 0 0 0 0 0 0 0 0 0
11 0 1 19 0 0 0 0 0 0 0 0 0 0 0 0 0 0 0 0 0 0 0 0 0 0 0 0 0 1 0 0 0 10 13 0 1 0 0 0 0 0 0 0 0
28 0 0 26 4 0 0 0 0 0 0 0 0 0 0 0 0 0 0 0 0 0 0 0 0 0 0 0 0 9 0 0 12 1 4 1 0 4 0 0 0 0 0 0 0
39 1 23 46 9 0 0 0 0 3 0 0 0 0 0 0 0 0 0 0 0 0 0 0 0 0 0 0 0 0 32 45 45 29 9 0 3 0 0 0 0 0 0 2 0
24 11 42 33 0 0 0 0 8 0 0 0 0 0 0 0 0 0 0 0 0 0 0 0 0 0 0 15 27 43 62 62 27 41 2 0 6 0 0 0 0 0 0 0 0
26 22 66 13 0 0 0 1 0 1 0 0 0 0 0 0 0 0 0 0 0 0 0 0 0 0 1 40 41 50 45 73 16 17 5 0 0 0 0 0 0 0 0 0 0
41 10 23 7 0 0 4 4 0 0 0 0 0 0 0 0 0 0 0 0 0 0 0 0 0 0 0 17 41 57 71 18 20 0 16 7 0 0 0 0 0 0 0 0 0
61 27 11 3 0 0 5 0 0 0 0 0 0 0 0 0 0 0 0 0 0 0 0 0 3 0 19 27 36 59 19 134 172 64 25 0 0 0 0 0 0 0 0 0 0
65 12 29 21 1 9 20 4 0 0 0 0 0 0 0 0 0 0 0 0 0 0 0 6 11 0 0 35 16 42 40 54 11 34 56 9 0 0 0 0 0 0 0 0 0
54 25 39 14 7 13 18 0 0 0 0 0 0 0 0 0 0 0 0 0 0 0 7 3 24 4 0 0 23 31 27 39 79 35 0 2 3 0 0 0 0 0 0 0 0
13 18 29 30 22 20 7 1 0 0 0 0 0 0 0 0 0 0 0 0 0 0 0 0 6 5 0 9 2 6 8 7 9 18 16 78 19 0 0 0 0 0 0 0 0
20 12 19 24 14 11 4 0 0 0 0 0 0 0 0 0 0 0 0 0 0 0 0 0 0 2 4 7 5 1 0 5 3 3 9 8 0 0 0 0 0 0 0 0 0
7 12 9 18 10 7 0 0 0 0 0 0 0 0 0 0 0 0 0 0 0 0 0 0 0 0 0 0 0 0 0 0 1 0 4 3 0 0 0 0 0 0 0 0 0
9 9 10 6 5 4 0 0 0 0 0 0 0 0 0 0 0 0 0 0 0 0 0 0 0 0 0 0 4 0 0 0 0 0 1 0 0 0 0 0 0 0 0 0 0
8 1 5 10 12 3 0 0 0 0 0 0 0 0 0 0 0 0 0 0 0 0 0 0 0 0 0 0 0 1 1 1 2 4 5 5 9 4 0 0 0 0 0 0 0